GFSMW_700_spd_153.txt.gz
Wind_Speed
34 35 36 38 38 37 36 38 43 45 50 51 48 43 43 43 45 44 46 43 47 48 52 55 58 55 56 55 51 47 45 40 38 34 31 32 33 34 34 34 31 31 27
36 37 39 41 41 40 41 42 46 50 52 53 48 47 49 49 50 51 49 50 49 50 51 54 57 56 54 57 58 53 50 48 44 41 36 37 37 38 38 37 35 33 30
37 40 43 42 41 41 43 44 48 52 54 52 45 43 42 44 45 47 47 41 37 40 42 47 52 56 59 57 58 62 54 54 50 47 44 43 41 40 40 39 39 36 33
39 41 42 40 41 43 44 46 49 53 54 49 45 46 48 47 45 48 42 36 35 38 40 42 45 51 57 60 60 61 61 55 56 51 50 46 43 40 39 41 41 40 37
38 41 41 41 43 42 44 46 47 51 48 44 43 45 47 45 46 48 43 39 37 36 38 37 43 50 52 53 57 63 65 61 59 58 52 50 46 44 39 40 39 39 38
38 39 40 39 39 40 42 43 44 44 43 41 40 42 45 43 43 50 43 40 39 42 43 41 45 49 55 54 52 59 69 68 59 63 59 55 50 43 41 36 33 32 31
33 35 35 32 34 37 39 40 41 40 40 38 38 40 42 42 45 51 46 32 34 43 42 44 49 49 52 56 50 53 65 64 72 63 69 59 54 48 41 37 32 28 27
29 27 29 30 32 36 38 40 41 40 39 38 38 39 41 42 44 50 41 36 42 41 42 42 42 43 47 51 49 50 61 67 69 69 70 62 59 54 43 41 36 30 29
22 25 26 29 33 36 39 41 43 41 40 38 38 39 41 39 43 46 41 38 38 44 47 38 35 36 40 41 41 46 55 63 69 63 77 42 65 56 49 46 42 36 33
22 24 26 30 35 37 39 41 42 41 40 37 38 39 41 39 43 44 45 45 36 34 43 30 29 29 30 29 32 39 47 57 65 71 61 67 42 62 53 48 45 42 37
22 24 27 31 35 39 40 40 40 38 36 34 35 38 39 38 39 42 47 43 33 32 29 30 26 25 19 21 28 34 40 46 45 53 60 73 51 57 56 51 49 45 41
21 25 29 32 37 39 39 38 37 36 36 35 35 37 38 38 37 39 41 43 34 33 33 32 29 23 25 26 31 27 32 40 39 38 45 51 62 60 61 56 51 48 43
24 29 32 34 37 38 37 37 36 35 35 34 34 35 37 37 37 37 37 39 38 34 37 22 26 23 26 30 30 33 37 43 42 37 44 54 53 63 65 60 56 52 47
29 31 33 35 35 36 36 36 36 36 35 35 34 35 37 37 37 36 35 37 37 33 35 34 17 26 24 26 31 35 40 42 43 45 43 43 47 73 68 61 59 53 51
28 31 34 33 33 34 36 36 36 36 36 36 35 34 36 36 37 36 34 35 35 33 32 36 26 23 23 23 32 37 35 45 44 43 44 50 45 72 75 69 63 58 55
26 30 31 32 33 34 35 36 36 36 36 37 36 34 35 36 36 36 34 34 33 33 30 33 28 23 22 32 22 43 39 35 45 48 47 46 41 66 73 70 64 61 58
28 29 29 31 33 34 35 35 35 35 36 37 37 35 35 36 35 36 34 32 32 32 30 31 31 26 23 29 19 28 33 34 36 49 48 39 46 70 68 74 69 65 60
25 25 27 30 32 32 33 33 34 35 36 36 37 36 35 35 34 34 34 31 31 30 29 29 28 25 25 22 19 22 30 40 38 45 44 52 53 62 78 77 65 72 67
21 24 27 29 30 30 30 32 33 34 35 34 35 35 34 34 33 34 32 31 29 26 26 27 26 23 23 31 19 18 20 30 30 33 35 40 52 53 66 67 77 68 68
22 25 27 27 26 28 31 33 32 32 33 32 32 33 33 33 32 33 32 30 29 26 24 23 24 23 20 23 24 18 13 15 24 33 34 23 42 59 42 69 73 69 61
23 24 24 24 27 29 30 32 30 31 31 31 30 30 31 31 31 31 31 29 28 26 23 21 21 20 22 19 20 9 9 12 16 18 30 29 40 52 44 51 73 72 52
19 20 23 26 28 28 29 29 29 30 30 29 28 29 29 29 28 29 28 28 27 26 23 20 20 20 19 20 12 9 13 13 4 6 17 28 26 37 32 37 39 45 51
18 21 23 25 25 26 26 27 27 27 28 28 27 27 26 27 26 26 25 24 24 23 23 20 17 18 16 17 15 8 7 14 16 15 13 14 15 19 29 31 33 46 35
19 20 20 21 23 24 24 25 25 26 27 26 26 25 23 23 24 22 22 23 22 21 20 19 15 17 17 17 15 11 8 7 9 12 15 9 13 9 10 29 25 28 37
16 18 19 20 21 23 23 23 24 24 25 25 24 23 22 21 22 23 19 21 23 23 22 22 20 18 13 15 13 9 7 11 3 10 18 20 18 18 22 23 24 26 28
15 17 18 20 21 22 22 22 22 22 22 23 22 21 21 21 20 20 21 20 20 21 22 23 23 22 19 15 14 12 10 6 9 7 4 12 14 20 24 25 25 27 26

GFSMW_700_spd_156.txt.gz
Wind_Speed
28 32 33 32 32 33 34 36 36 38 40 43 45 46 45 40 36 36 37 38 39 39 39 42 47 48 46 48 51 51 53 52 48 43 41 40 36 34 32 36 36 36 31
30 34 34 35 35 35 36 38 41 42 45 46 49 52 51 44 41 40 39 38 39 41 45 43 40 42 47 47 50 52 53 53 51 49 46 46 41 39 34 38 39 39 36
33 37 38 38 38 37 39 40 41 44 46 49 51 52 49 43 40 38 38 39 40 42 45 41 41 40 42 41 42 50 52 55 54 53 51 51 51 41 40 38 41 43 41
38 37 38 38 39 39 40 41 42 44 47 49 51 54 50 45 41 40 41 40 39 43 50 43 42 40 41 41 39 40 50 53 53 55 56 53 51 49 46 43 41 43 42
36 35 36 38 39 39 39 39 41 44 46 48 49 49 43 42 41 40 41 40 41 44 46 40 41 39 41 42 43 38 42 51 56 54 56 56 55 54 50 47 42 42 44
34 34 35 37 37 37 36 38 39 41 41 43 45 42 40 40 41 41 42 40 41 44 38 35 38 39 39 41 44 48 46 47 55 61 53 62 61 63 55 55 47 38 41
33 33 34 34 34 33 33 34 35 36 40 42 41 39 38 39 40 41 42 41 42 44 42 35 36 36 40 48 50 51 52 50 55 58 67 60 66 67 61 59 52 41 40
31 31 30 32 32 27 28 31 35 38 40 40 38 36 36 38 39 40 41 40 43 46 49 39 33 35 41 49 47 48 51 49 53 56 69 62 70 69 67 64 56 44 38
29 30 29 26 24 26 29 32 37 39 40 38 37 35 35 37 38 39 40 39 42 46 46 41 36 38 39 42 40 44 47 51 51 56 62 73 50 50 69 67 59 47 39
26 25 23 23 24 28 32 37 39 39 37 36 36 36 36 36 38 39 40 40 40 44 45 42 38 37 40 38 38 44 42 47 50 51 59 64 58 62 55 56 61 54 43
24 23 23 24 27 32 35 37 37 38 36 36 36 36 36 36 37 39 39 41 40 43 44 45 43 37 35 36 35 39 33 35 44 47 52 51 51 46 68 58 58 57 49
25 24 24 26 30 33 34 36 38 37 37 37 36 36 37 37 36 37 38 40 40 40 44 44 44 37 36 35 32 38 32 28 29 34 39 46 55 58 53 70 49 62 52
26 26 28 30 31 33 35 38 38 37 37 38 38 38 38 37 36 37 38 39 40 40 43 42 42 42 38 34 43 37 37 31 31 35 34 32 37 47 58 65 68 48 58
28 29 28 29 31 32 38 38 37 38 38 39 38 38 37 36 36 37 39 40 41 41 43 41 41 41 40 37 39 30 40 37 36 39 40 37 38 41 42 46 62 62 60
28 30 29 28 31 35 35 36 37 38 39 38 37 36 36 37 36 36 38 40 42 43 42 41 39 39 40 37 35 30 35 41 42 43 44 44 45 40 37 38 54 64 75
30 30 26 31 32 32 33 34 36 36 35 35 35 35 35 36 36 36 38 39 40 42 43 41 38 36 37 32 34 35 28 32 41 42 44 48 50 45 42 38 45 58 62
30 28 31 30 30 30 33 34 33 31 32 32 33 34 35 36 35 36 38 38 39 41 42 41 38 34 34 32 33 31 32 20 35 43 39 43 52 54 48 42 48 62 75
25 28 27 27 29 31 31 30 29 31 31 30 32 33 34 35 34 35 36 37 37 39 41 40 38 33 32 32 32 35 28 33 26 39 50 43 45 49 53 46 53 60 68
21 24 24 25 29 29 27 28 29 31 30 30 32 34 34 34 34 34 35 36 36 37 39 40 37 33 32 33 31 34 28 31 35 38 43 41 45 50 45 49 48 65 70
22 21 23 25 23 24 26 27 29 29 29 30 32 34 34 34 33 34 34 34 36 36 38 38 38 34 33 32 29 32 31 30 28 32 38 47 41 43 52 50 50 58 73
18 20 21 21 22 25 26 27 27 27 28 29 30 32 33 33 33 32 32 32 33 34 34 35 36 32 32 28 26 28 32 25 17 14 32 37 45 51 48 53 63 59 65
19 18 19 21 21 22 23 24 25 26 27 28 29 31 32 32 31 31 30 28 29 30 30 31 29 27 27 28 24 25 32 22 14 12 13 29 39 39 38 44 50 55 56
15 17 18 18 19 20 21 23 24 25 25 26 27 29 29 31 30 29 28 26 26 27 28 28 27 26 24 21 21 24 26 28 14 13 17 15 21 29 38 34 37 41 44
15 16 16 18 20 21 22 23 23 24 25 26 26 27 28 28 30 28 26 27 26 25 25 27 27 30 29 23 18 21 23 24 18 10 9 9 24 24 26 37 48 48 44
13 14 16 18 20 22 23 24 24 24 24 25 26 26 26 26 27 29 29 27 28 29 28 29 31 31 31 34 28 23 21 22 23 22 11 6 12 13 24 28 34 27 29
12 14 18 19 20 20 20 20 21 23 24 24 24 25 25 25 25 25 24 27 27 27 27 27 28 28 30 30 29 22 18 14 16 19 19 2 13 19 20 23 23 23 30

GFSMW_700_spd_159.txt.gz
Wind_Speed
25 26 27 27 26 28 29 30 30 32 33 33 34 35 36 37 41 40 36 33 31 31 33 35 37 36 36 36 38 42 48 49 48 48 49 49 48 48 44 39 36 35 34
28 29 30 32 30 31 32 32 32 33 35 35 38 40 39 38 43 40 35 33 32 32 34 36 38 39 41 44 40 39 39 42 47 51 46 51 51 53 50 45 41 37 37
33 33 35 35 33 33 35 32 32 34 35 36 39 40 39 41 42 39 34 34 33 32 32 34 38 40 44 45 42 37 38 37 37 48 49 45 50 55 52 51 44 41 41
36 36 35 36 36 34 33 33 33 32 35 38 38 38 40 42 43 40 36 34 33 33 32 35 39 40 44 45 41 37 38 39 35 37 49 49 51 22 54 53 51 47 43
39 38 37 36 36 35 33 32 30 32 35 35 35 38 40 41 39 37 35 35 34 33 33 34 36 38 45 44 39 36 37 37 38 34 41 47 52 57 44 50 53 53 48
39 38 36 36 34 33 31 30 28 30 30 32 36 38 38 37 34 33 35 35 35 35 32 34 35 36 43 39 38 40 39 37 39 40 40 43 52 55 63 54 54 56 51
35 35 34 32 30 29 28 28 26 26 30 33 35 37 37 35 34 34 34 35 36 37 35 35 37 36 37 35 38 38 40 39 37 39 44 46 48 59 55 56 58 58 57
30 31 29 27 27 26 28 23 24 27 31 33 35 36 36 34 33 34 35 36 38 38 38 37 39 40 38 38 38 42 41 41 42 40 41 46 50 56 62 55 58 58 59
30 28 26 25 26 27 23 23 26 31 32 34 35 35 34 34 34 34 35 37 37 39 39 38 38 40 41 39 41 40 41 44 41 39 44 45 45 56 61 66 56 55 63
24 26 25 26 26 24 24 27 30 32 33 35 35 34 33 34 35 35 36 37 37 39 38 38 39 39 41 39 38 39 39 42 38 43 47 48 50 50 63 67 64 63 54
20 23 25 24 24 25 26 29 30 31 33 34 35 34 35 36 37 37 37 38 38 40 39 39 40 40 39 39 40 43 42 46 44 45 47 40 48 48 57 67 70 65 66
19 23 24 25 26 27 30 29 31 34 35 36 35 36 37 37 37 38 38 38 40 40 41 40 41 41 40 40 39 42 39 40 37 46 50 44 37 41 51 63 61 52 66
19 22 28 26 27 28 29 30 34 35 36 35 35 36 36 36 36 37 38 37 39 39 40 41 42 42 42 40 40 42 45 35 39 44 40 40 32 36 42 49 51 64 59
26 29 29 28 26 29 30 33 34 36 36 36 35 33 34 34 35 36 37 37 38 39 40 41 42 43 43 40 41 40 41 36 36 36 37 41 36 35 44 44 50 51 58
30 29 31 28 29 27 29 31 33 33 34 34 32 30 31 33 33 35 36 37 38 39 40 42 41 42 43 41 40 38 38 36 35 32 39 39 39 40 45 41 49 51 54
30 34 34 27 30 25 27 30 31 32 30 29 30 29 29 31 33 35 35 36 37 38 38 40 42 42 42 40 38 39 37 36 35 30 34 46 43 41 46 46 47 48 50
31 32 35 26 22 24 27 30 31 28 28 28 29 29 30 32 34 35 35 36 36 37 38 38 39 40 41 41 38 37 34 33 32 29 23 39 48 46 50 50 46 48 48
28 32 23 19 22 26 28 27 26 26 27 29 29 30 31 33 34 34 35 35 36 37 38 37 38 38 39 40 37 34 30 31 32 34 24 21 41 51 52 54 53 48 54
26 21 17 20 23 27 25 25 25 26 27 27 28 29 30 32 34 34 34 35 35 35 36 38 39 38 38 38 37 34 28 28 31 38 32 32 34 52 55 55 60 53 52
22 16 19 22 22 22 23 23 23 24 25 25 27 28 30 31 33 34 34 34 34 34 33 33 36 38 37 36 36 35 32 29 31 36 31 37 38 45 58 57 60 62 58
15 17 15 16 18 19 20 21 22 23 24 24 26 28 29 31 32 33 33 32 32 31 30 29 30 31 33 33 30 30 29 29 32 37 33 29 27 38 51 59 57 63 60
11 12 12 14 16 18 19 20 21 22 24 25 26 28 29 30 31 31 31 31 30 29 29 27 26 27 27 30 28 25 24 25 32 32 36 29 24 33 44 48 54 53 51
8 9 11 12 14 16 18 21 23 23 24 25 26 27 28 29 30 31 30 29 29 29 28 28 27 27 27 30 31 25 19 20 24 26 35 31 25 17 42 45 44 49 53
7 9 10 12 15 18 19 19 20 21 22 23 24 25 27 27 28 30 31 30 30 30 29 30 29 30 31 32 33 35 28 23 22 23 30 35 29 21 31 41 48 52 53
5 7 11 14 14 15 16 16 17 19 21 22 23 24 25 26 27 29 31 32 31 33 34 33 34 34 32 34 35 36 36 38 35 28 24 24 15 14 16 36 45 50 53
7 10 10 11 12 13 15 17 18 19 20 22 23 25 26 27 27 26 26 30 31 30 30 31 31 31 31 30 30 32 33 35 35 29 19 19 17 11 7 10 33 47 46

GFSMW_700_spd_162.txt.gz
Wind_Speed
29 27 26 26 24 25 26 27 26 26 28 28 28 28 27 27 25 26 29 31 33 31 31 31 32 33 33 33 33 32 34 37 41 44 45 50 53 48 52 51 47 45 44
29 29 29 28 28 29 30 30 30 28 29 28 28 27 27 26 25 29 31 33 34 33 32 32 33 34 34 35 36 35 38 40 39 43 43 44 47 51 48 54 53 50 45
31 30 31 32 33 33 33 32 31 29 28 27 28 27 26 26 28 30 32 33 32 32 32 33 33 34 35 35 35 36 40 46 34 36 37 36 40 37 45 48 54 52 49
32 33 34 35 35 36 35 32 29 29 28 27 26 24 24 27 29 30 30 30 30 30 32 31 32 32 34 37 37 38 40 41 32 33 33 37 38 42 40 37 44 47 52
32 34 36 38 39 37 34 31 29 28 27 26 24 24 26 28 30 31 30 30 29 30 31 32 32 33 34 36 37 38 37 35 32 31 32 32 36 40 42 46 35 35 38
32 35 38 39 39 37 33 30 29 28 27 24 25 27 29 30 31 32 31 30 29 29 31 32 32 33 34 34 35 36 35 34 35 36 39 39 39 41 42 44 50 55 42
28 33 37 38 35 32 29 28 26 26 24 25 28 29 30 32 34 33 33 32 31 31 32 33 33 34 34 34 35 33 35 35 36 39 38 38 41 40 46 47 48 55 49
22 27 31 32 30 27 25 23 24 24 23 27 29 31 32 34 35 36 35 33 34 33 33 34 35 36 37 36 36 35 35 37 37 37 41 44 45 42 46 51 49 51 57
24 27 27 25 23 22 21 22 23 23 26 27 29 31 34 35 36 36 36 35 36 37 36 36 37 38 39 39 38 36 36 37 38 38 39 39 38 34 37 48 52 50 56
12 19 23 21 20 22 23 25 24 25 27 28 30 33 36 37 37 37 36 36 36 37 38 38 39 40 41 41 39 38 37 38 38 39 37 43 43 38 38 40 47 50 54
10 14 17 19 22 24 26 26 25 27 28 31 34 36 37 37 37 37 37 37 37 38 39 40 39 40 41 41 40 39 38 38 39 40 41 39 41 43 43 43 46 53 55
9 12 16 20 24 26 27 25 28 27 31 35 35 37 37 37 36 36 36 37 36 36 38 40 40 40 42 41 41 41 38 39 38 41 42 37 40 43 48 56 52 47 57
16 16 18 21 27 30 29 31 28 32 32 33 35 36 37 36 35 34 33 34 36 37 38 39 40 41 41 41 40 41 40 38 38 39 40 35 37 38 48 47 47 50 47
20 20 22 24 29 31 34 33 34 33 30 33 34 35 34 34 34 33 34 34 36 37 38 39 39 40 41 41 42 42 41 40 39 37 39 36 39 39 43 44 44 42 48
27 24 26 27 30 33 35 34 24 26 31 34 34 31 30 32 33 34 35 37 38 38 38 38 37 38 40 41 41 42 40 40 40 38 37 36 35 40 42 45 47 45 45
29 26 27 29 31 33 31 20 22 27 31 31 30 31 32 31 32 33 34 36 37 38 37 38 38 36 37 38 39 41 40 38 41 39 35 35 36 39 40 46 50 45 48
24 24 26 31 33 25 17 20 24 28 29 28 29 30 30 30 31 32 33 34 34 35 36 37 37 36 37 38 38 38 38 38 37 38 36 31 32 36 38 49 48 46 49
24 20 22 28 18 17 19 22 26 25 25 26 27 27 28 28 29 30 31 32 33 34 35 34 35 35 37 39 39 39 38 36 36 35 35 34 32 34 40 46 53 49 50
19 16 20 19 15 17 20 22 22 22 23 24 24 25 26 27 28 29 30 31 31 32 32 33 34 35 36 37 39 40 39 36 33 33 30 35 36 36 37 44 51 53 53
14 17 20 14 15 17 18 18 19 20 21 23 24 26 28 30 30 30 30 30 30 30 31 31 33 35 35 34 35 37 40 39 36 33 33 35 34 36 34 38 40 53 58
12 15 13 13 14 15 16 17 19 20 23 25 26 28 29 29 30 30 31 30 30 30 30 29 31 33 33 31 32 33 36 37 35 34 33 34 32 31 33 37 43 51 63
12 10 11 10 11 13 14 16 19 21 21 22 24 25 26 27 27 28 28 28 28 28 28 27 26 29 30 31 30 29 30 32 34 31 30 32 27 29 28 30 38 39 55
8 8 8 8 9 11 15 15 15 17 19 21 23 24 26 27 28 29 30 30 29 28 28 28 28 28 29 31 32 31 31 31 36 38 36 35 37 35 32 30 31 30 49
7 7 6 8 10 10 11 13 15 17 19 21 22 23 24 26 27 28 29 30 30 30 29 30 30 31 31 32 33 36 35 35 36 38 35 31 27 29 35 32 21 32 49
6 5 6 7 6 8 11 13 15 16 18 19 20 21 23 25 27 29 30 31 32 33 34 33 34 35 34 34 36 36 37 37 37 35 34 29 23 19 20 22 16 30 42
5 5 3 4 6 8 10 12 13 14 16 17 18 20 22 24 25 27 29 30 30 31 32 32 31 31 33 33 32 32 33 33 33 33 33 33 29 28 24 20 11 14 40

GFSMW_700_spd_165.txt.gz
Wind_Speed
32 33 30 27 28 27 26 25 25 25 25 25 27 27 26 25 24 23 23 24 25 26 27 28 30 30 31 31 33 34 34 33 34 36 37 37 37 41 44 47 49 48 52
33 31 29 30 30 29 28 28 28 29 27 27 26 26 24 25 23 23 24 25 27 28 30 29 30 32 33 33 35 36 36 35 33 36 36 39 40 42 46 45 43 42 46
32 30 29 31 31 32 31 31 31 30 28 27 25 24 24 24 24 25 26 27 29 30 31 31 31 33 34 34 35 36 37 38 34 35 37 38 39 40 36 32 29 33 38
32 34 32 33 34 33 33 34 32 29 27 25 23 22 23 23 24 25 26 27 29 31 32 33 34 33 34 35 35 35 36 37 37 34 34 34 37 38 41 31 36 37 36
33 32 32 33 35 34 34 33 32 30 26 24 23 22 22 22 23 25 27 29 30 32 33 34 36 36 35 35 36 36 35 36 38 35 34 33 34 38 40 38 30 32 37
32 32 32 33 33 34 34 33 31 29 26 24 23 21 22 24 26 28 30 31 32 33 34 35 36 37 37 36 36 36 36 36 37 35 34 35 34 36 41 44 43 40 33
28 29 30 30 35 34 33 32 30 27 25 24 23 23 25 28 29 31 32 34 36 36 37 36 36 37 37 37 38 38 36 37 37 37 36 36 34 36 41 44 45 46 41
20 22 25 29 31 32 30 28 25 24 23 24 24 26 27 28 30 34 37 38 38 38 38 38 37 38 37 38 39 40 39 38 37 38 39 38 35 33 38 46 49 52 52
17 20 23 23 24 25 24 23 22 23 25 26 27 28 30 32 35 37 38 39 39 40 39 39 39 38 39 40 40 40 40 41 39 38 39 41 36 37 34 41 41 42 47
14 14 15 17 17 19 20 21 23 25 26 27 28 30 33 37 39 39 39 39 39 40 39 38 38 39 39 41 41 41 40 41 41 40 41 40 37 39 37 37 42 42 43
14 12 13 13 15 17 19 21 24 27 27 28 31 34 38 39 40 40 39 39 38 37 37 37 37 38 39 40 41 41 41 40 41 39 40 43 38 41 39 40 41 44 44
10 8 11 16 20 22 21 23 27 29 30 34 35 36 37 36 37 38 39 38 37 35 36 37 38 38 39 39 41 41 40 40 40 38 39 42 40 42 42 39 39 43 43
13 17 19 19 20 22 24 27 30 33 35 36 36 35 33 35 36 35 35 36 37 37 37 38 38 38 38 39 40 41 40 38 38 39 39 41 42 43 42 41 40 43 45
23 24 21 22 22 24 26 28 32 34 35 33 28 30 32 34 35 35 36 35 36 37 37 37 39 39 40 40 41 41 40 39 38 38 39 41 43 44 44 45 45 43 48
26 27 19 21 26 27 28 31 33 33 29 25 27 30 32 32 32 33 33 34 35 35 36 37 36 38 40 41 41 42 42 41 40 39 39 40 43 44 44 46 46 47 49
28 29 18 20 22 28 31 33 31 20 22 25 29 29 29 30 31 31 32 33 33 34 35 36 36 35 37 39 39 42 41 40 40 41 39 41 41 45 45 46 48 51 50
29 29 21 21 23 25 29 22 19 20 23 25 26 26 27 28 29 31 32 32 33 33 34 34 34 33 35 36 37 38 40 42 41 41 43 40 40 43 47 48 47 47 48
31 24 19 19 19 22 18 17 18 20 22 23 24 25 27 28 30 31 32 33 34 34 34 33 34 33 34 36 37 38 39 40 41 43 45 46 41 41 45 45 47 47 46
26 21 17 16 17 16 15 16 17 18 19 22 24 26 28 30 31 32 32 32 32 32 33 33 33 34 33 35 37 39 39 39 38 38 40 43 43 42 43 46 45 46 46
17 16 14 14 14 13 13 14 16 17 20 23 25 26 25 26 28 29 30 30 31 31 31 32 33 34 34 34 35 36 38 38 37 36 35 35 36 37 41 46 48 49 45
14 12 12 12 11 11 13 14 15 18 20 20 21 23 25 27 28 29 31 32 33 33 32 32 32 32 33 33 33 35 36 39 40 38 36 37 39 33 34 40 46 45 47
13 12 11 10 9 10 11 13 16 15 17 19 21 24 26 27 29 30 31 32 32 32 31 30 30 30 30 31 31 33 33 34 36 40 39 41 45 44 40 40 37 39 38
12 11 9 8 9 9 11 12 12 14 16 19 21 23 25 27 29 29 29 30 31 31 31 31 30 30 31 32 33 33 34 33 33 34 38 40 41 39 37 39 43 42 36
10 9 7 8 8 9 8 9 12 14 16 18 20 22 24 25 26 28 29 30 31 32 33 34 33 32 32 34 35 36 35 35 32 32 35 39 38 36 33 32 32 34 34
9 8 8 8 7 6 7 9 11 13 14 16 18 19 21 23 26 28 29 32 33 34 35 35 35 36 36 36 38 38 38 37 36 34 35 36 36 35 32 28 28 26 23
10 9 8 7 6 6 6 8 9 11 13 14 15 17 19 22 24 27 31 32 33 33 33 34 34 34 35 35 35 35 34 35 34 33 33 34 35 36 37 35 32 29 23